Simultaneous Nadir Overpasses (SNOs) Predictions

Prediction of SNOs between LANDSAT-8 and METOP-B Satellite Orbit:

Table of predicted SNOs for the next 14.0 days since TLE Epoch: 11/18/2023
Index Date (LANDSAT-8) Time (LANDSAT-8) Lat,Lon (LANDSAT-8) SZA (LANDSAT-8 ) Date (METOP-B) Time (METOP-B) Lat,Lon (METOP-B) SZA (METOP-B ) Distance(km) Time Diff (sec)
1 11/20/2023 13:48:33 81.26, 15.05 103.48 11/20/2023 13:47:51 81.26, 15.17 103.47 2.00 42
2 11/20/2023 14:38:00 -81.26,-177.38 76.53 11/20/2023 14:38:32 -81.26,-177.56 76.54 2.89 32
3 11/23/2023 09:22:48 81.27, 81.52 104.07 11/23/2023 09:22:10 81.26, 81.36 104.03 2.80 38
4 11/23/2023 10:12:15 -81.26,-110.89 75.94 11/23/2023 10:12:50 -81.27,-110.96 75.92 1.13 35
5 11/26/2023 04:57:04 81.26, 147.83 104.59 11/26/2023 04:56:29 81.26, 147.88 104.58 0.88 35
6 11/26/2023 05:46:30 -81.28, -44.18 75.36 11/26/2023 05:47:08 -81.28, -44.04 75.33 2.44 38
7 11/29/2023 00:31:19 81.26,-145.64 105.09 11/29/2023 00:30:48 81.26,-145.67 105.07 0.59 31
8 11/29/2023 01:20:46 -81.26, 22.00 74.91 11/29/2023 01:21:28 -81.27, 22.05 74.88 1.09 42
9 12/01/2023 20:05:33 81.26, -79.26 105.51 12/01/2023 20:05:06 81.26, -79.28 105.50 0.23 27



Historial Predications of SNOs between LANDSAT-8 and METOP-B
